Location: Asheville, NC
(35.6000°N, 82.5500°W)
Time: 09:00:22
(UTC-04:00)

Tiangong 2 - Pass Details

Date: 03 January 2018
Orbit: 381 x 388 km, 42.8° (Epoch: 25 April)

Event Time Altitude Azimuth Distance (km) Brightness Sun altitude
Rises 19:35:52 0° 283° (WNW) 2,266 6.0 -25.0°
Reaches altitude 10° 19:38:24 10° 262° (W) 1,405 4.9 -25.5°
Maximum altitude 19:40:35 17° 219° (SW) 1,049 3.8 -25.9°
Enters shadow 19:40:37 17° 218° (SW) 1,049 3.8 -25.9°
